ORBCOMM-X 1 21576U 91050C 25289.42006278 .00000472 00000+0 15253-3 0 9992 2 21576 98.3305 353.4758 0003914 162.1748 197.9580 14.43364323799605 ORBCOMM FM01 1 23545U 95017A 25289.58258316 .00007293 00000+0 72959-3 0 9990 2 23545 69.9608 131.1030 0002659 184.2044 175.9090 14.91804178630602 ORBCOMM FM02 1 23546U 95017B 25289.04064738 .00010575 00000+0 10222-2 0 9996 2 23546 69.9630 151.3896 0003946 167.8460 192.2792 14.93011543630183 ORBCOMM FM08 1 25112U 97084A 25289.57029342 .00002062 00000+0 61003-3 0 9999 2 25112 45.0118 145.0003 0006298 138.1803 221.9531 14.46262817458948 ORBCOMM FM10 1 25113U 97084B 25289.56984560 .00002168 00000+0 64245-3 0 9999 2 25113 45.0132 147.6019 0005034 102.5242 257.6173 14.46041816634082 ORBCOMM FM11 1 25114U 97084C 25289.31919131 .00001870 00000+0 56264-3 0 9996 2 25114 45.0119 149.6603 0005824 103.0323 257.1179 14.45780185459008 ORBCOMM FM12 1 25115U 97084D 25288.31264249 .00001881 00000+0 56566-3 0 9996 2 25115 45.0126 154.2307 0004911 92.5773 267.5641 14.45792791458652 ORBCOMM FM09 1 25116U 97084E 25289.32327780 .00001851 00000+0 55864-3 0 9996 2 25116 45.0136 150.4383 0006211 89.5790 270.5773 14.45656733459001 ORBCOMM FM05 1 25117U 97084F 25289.31965728 .00001928 00000+0 57194-3 0 9999 2 25117 45.0129 146.2863 0002665 95.7171 264.3984 14.46377510458144 ORBCOMM FM06 1 25118U 97084G 25289.59444116 .00002191 00000+0 64219-3 0 9992 2 25118 45.0119 144.5633 0001611 91.1931 5.1635 14.46536362459107 ORBCOMM FM07 1 25119U 97084H 25289.58896069 .00002121 00000+0 62264-3 0 9991 2 25119 45.0115 145.3487 0003469 96.4140 263.7107 14.46552162459093 ORBCOMM FM03 1 25158U 98007B 25289.52127037 .00001364 00000+0 52112-3 0 9995 2 25158 107.9632 24.8941 0042976 34.6689 325.7240 14.34803183441448 ORBCOMM FM04 1 25159U 98007C 25289.55444016 .00001415 00000+0 53743-3 0 9996 2 25159 107.9622 28.2639 0038815 31.5913 328.7547 14.35047936441634 ORBCOMM FM17 1 25413U 98046A 25289.03147322 .00001601 00000+0 60210-3 0 9999 2 25413 44.9951 47.1833 0002813 131.3706 228.7383 14.35351572420533 ORBCOMM FM18 1 25414U 98046B 25289.38358613 .00001555 00000+0 54588-3 0 9994 2 25414 44.9934 319.6479 0005187 202.0157 158.0469 14.38907335421708 ORBCOMM FM19 1 25415U 98046C 25289.34906777 .00001609 00000+0 56527-3 0 9996 2 25415 44.9948 321.9988 0003982 204.7023 169.5936 14.38724873421651 ORBCOMM FM20 1 25416U 98046D 25288.85135100 .00001360 00000+0 49719-3 0 9995 2 25416 44.9950 329.7372 0002643 238.8626 121.1963 14.37478364421629 ORBCOMM FM16 1 25417U 98046E 25289.60355299 .00001829 00000+0 62897-3 0 9995 2 25417 44.9943 316.1138 0005616 216.5777 143.4689 14.39279615421740 ORBCOMM FM15 1 25418U 98046F 25289.40177736 .00001515 00000+0 53278-3 0 9997 2 25418 44.9976 322.5836 0005381 216.1058 143.9428 14.38912608421707 ORBCOMM FM14 1 25419U 98046G 25289.38819173 .00001593 00000+0 55357-3 0 9999 2 25419 44.9964 320.5266 0004145 221.0014 139.0523 14.39305833421679 ORBCOMM FM13 1 25420U 98046H 25289.40142002 .00001398 00000+0 50464-3 0 9991 2 25420 44.9983 329.6453 0005540 192.7250 167.3459 14.37985127420686 ORBCOMM FM21 1 25475U 98053A 25289.64512214 .00001462 00000+0 52966-3 0 9992 2 25475 45.0089 54.2101 0002154 155.6390 204.4560 14.37613080414727 ORBCOMM FM22 1 25476U 98053B 25289.59163809 .00001880 00000+0 65268-3 0 9992 2 25476 45.0083 48.3088 0003603 141.4110 218.6996 14.38736638414752 ORBCOMM FM23 1 25477U 98053C 25289.62932964 .00001685 00000+0 60066-3 0 9997 2 25477 45.0089 56.2253 0002891 138.9431 221.1635 14.37829952414879 ORBCOMM FM24 1 25478U 98053D 25289.03228687 .00002004 00000+0 69693-3 0 9994 2 25478 45.0084 55.9924 0002825 145.6484 214.4548 14.38424466414843 ORBCOMM FM25 1 25479U 98053E 25289.63120317 .00001861 00000+0 65077-3 0 9994 2 25479 45.0079 51.4406 0005256 148.2362 211.8804 14.38393505415227 ORBCOMM FM26 1 25480U 98053F 25288.40330890 .00001492 00000+0 54150-3 0 9999 2 25480 45.0073 54.6063 0007197 153.6512 206.4703 14.37401640414945 ORBCOMM FM27 1 25481U 98053G 25288.71328260 .00001899 00000+0 66282-3 0 9992 2 25481 45.0060 55.9515 0001838 172.4986 187.5891 14.38426676415022 ORBCOMM FM28 1 25482U 98053H 25288.87524522 .00001600 00000+0 56391-3 0 9999 2 25482 45.0068 352.5250 0005991 202.4590 157.5997 14.38579970415730 ORBCOMM FM30 1 25980U 99065A 25289.56087656 .00001546 00000+0 55759-3 0 9991 2 25980 45.0311 235.1097 0007654 270.0645 89.9326 14.37573671351913 ORBCOMM FM31 1 25981U 99065B 25289.53964500 .00001480 00000+0 53655-3 0 9991 2 25981 45.0223 228.6730 0005530 294.9851 65.0423 14.37503160351461 ORBCOMM FM32 1 25982U 99065C 25289.59690742 .00001469 00000+0 54296-3 0 9991 2 25982 45.0153 245.7941 0008047 286.0830 73.9131 14.36557512352052 ORBCOMM FM33 1 25983U 99065D 25289.56221029 .00001363 00000+0 47072-3 0 9994 2 25983 45.0270 141.7886 0008239 318.1963 41.8257 14.40297689353564 ORBCOMM FM36 1 25984U 99065E 25289.54535417 .00001872 00000+0 65367-3 0 9994 2 25984 45.0390 235.6497 0002477 236.2626 123.7988 14.38465918351897 ORBCOMM FM35 1 25985U 99065F 25289.19626147 .00001602 00000+0 57832-3 0 9996 2 25985 45.0391 243.3119 0005643 292.3933 67.6318 14.37394351352196 ORBCOMM FM34 1 25986U 99065G 25289.57856267 .00001374 00000+0 50272-3 0 9994 2 25986 45.0385 241.9579 0004756 258.3570 101.6745 14.37381064352366 ORBCOMM FM38 1 33060U 08031A 25289.60920865 .00003243 00000+0 43238-3 0 9990 2 33060 48.4382 96.3905 0005345 208.4595 151.6029 14.81870213932750 ORBCOMM FM41 1 33061U 08031B 25289.60109988 .00002932 00000+0 39754-3 0 9998 2 33061 48.4416 104.6334 0004433 193.8156 280.3872 14.81436846932234 ORBCOMM FM29 1 33062U 08031C 25289.57389588 .00002886 00000+0 39056-3 0 9994 2 33062 48.4367 112.4173 0006084 191.3274 270.2739 14.81561257932141 ORBCOMM FM39 1 33063U 08031D 25288.96397374 .00002518 00000+0 35657-3 0 9994 2 33063 48.4383 140.9469 0006693 158.6210 201.4986 14.80050622931682 ORBCOMM FM37 1 33064U 08031E 25289.60246243 .00002223 00000+0 31661-3 0 9999 2 33064 48.4375 126.2412 0005445 182.0996 233.5243 14.80251007932037 ORBCOMM FM40 1 33065U 08031F 25289.59823667 .00003399 00000+0 44362-3 0 9996 2 33065 48.4394 108.2142 0006741 196.2539 238.4757 14.82647937932171 VESSELSAT 1 1 37840U 11058C 25288.57303808 .00000405 00000+0 76522-4 0 9990 2 37840 19.9617 85.4143 0013724 70.8443 289.3446 14.11379807723330 ORBCOMM FM109 1 40086U 14040A 25289.04578038 .00001155 00000+0 28335-3 0 9993 2 40086 47.0023 165.4216 0001512 194.1152 165.9692 14.58389307598708 ORBCOMM FM107 1 40087U 14040B 25289.34213400 .00000805 00000+0 20823-3 0 9991 2 40087 47.0041 164.9354 0000624 122.1674 237.9273 14.58463740598821 ORBCOMM FM106 1 40088U 14040C 25289.24864333 .00001561 00000+0 28980-3 0 9990 2 40088 47.0616 337.7475 0017708 269.5163 90.3698 14.69786296601287 ORBCOMM FM111 1 40089U 14040D 25289.39140889 .00003357 00000+0 39076-3 0 9993 2 40089 46.9998 170.6933 0028963 53.0840 307.2705 14.87132651608269 ORBCOMM FM104 1 40090U 14040E 25289.46427192 .00000960 00000+0 24966-3 0 9997 2 40090 47.0046 199.4337 0016143 36.9191 323.2803 14.56855210598309 ORBCOMM FM103 1 40091U 14040F 25289.38970652 .00000827 00000+0 21319-3 0 9994 2 40091 47.0042 165.3321 0001241 119.5577 240.5432 14.58382567581796 ORBCOMM FM114 1 41179U 15081A 25289.13389687 .00001089 00000+0 26901-3 0 9996 2 41179 47.0026 75.5215 0002363 196.5433 163.5375 14.58418204522122 ORBCOMM FM119 1 41180U 15081B 25289.19588008 .00000832 00000+0 21430-3 0 9999 2 41180 47.0017 344.5763 0002017 253.6454 106.4210 14.58358849523386 ORBCOMM FM105 1 41181U 15081C 25289.47888934 .00000408 00000+0 15973-3 0 9996 2 41181 47.0031 0.0064 0001607 174.9554 185.1343 14.45330653518295 ORBCOMM FM110 1 41182U 15081D 25289.12559749 .00001510 00000+0 35867-3 0 9997 2 41182 47.0015 75.0891 0001791 26.9372 333.1607 14.58452077521994 ORBCOMM FM118 1 41183U 15081E 25289.08995596 .00000986 00000+0 24716-3 0 9994 2 41183 47.0038 75.5265 0002644 336.0128 24.0634 14.58412321522098 ORBCOMM FM112 1 41184U 15081F 25289.43744507 .00001257 00000+0 30439-3 0 9999 2 41184 47.0003 342.4744 0001818 215.2816 144.7950 14.58478024523367 ORBCOMM FM113 1 41185U 15081G 25289.41449747 .00001136 00000+0 27865-3 0 9991 2 41185 47.0006 342.9271 0001816 228.2462 131.8269 14.58476746523347 ORBCOMM FM115 1 41186U 15081H 25289.09800430 .00001289 00000+0 28467-3 0 9994 2 41186 46.9979 184.4126 0001319 270.2791 89.7945 14.62748514525471 ORBCOMM FM108 1 41187U 15081J 25288.96315176 .00001394 00000+0 33432-3 0 9993 2 41187 47.0048 256.5128 0001735 168.1490 191.9437 14.58398216524428 ORBCOMM FM117 1 41188U 15081K 25289.61453916 .00001239 00000+0 30118-3 0 9998 2 41188 47.0008 252.1581 0002447 179.9787 180.1099 14.58401320524560 ORBCOMM FM116 1 41189U 15081L 25289.46048083 .00001336 00000+0 32144-3 0 9996 2 41189 47.0035 342.6817 0001967 327.1633 32.9130 14.58480062523357